EXS5PH EGNM-LGKR

Flight info

Callsign EXS5PH
Flight time 3h 14m
Altitude 23000
Route POL DCT MCT DCT LISTO P18 UTUXA N859 HON/N0442F350 L15 FINMA DCT CHT DCT ITVIP DCT KONAN DCT KOK DCT RITAX DCT KRH DCT UTABA DCT BEMKI DCT ELMEM DCT DIRAB DCT VESAL DCT VAKSU DCT RODON DCT LIMJA N732 PITAS
Aircraft B738/M-SDE2E3FGHIRWXY/LB1

Departure

Time 2026-04-30 15:16
Airport Leeds Bradford Airport (EGNM)

Arrival

Time 2026-04-30 18:30
Airport Corfu Ioannis Kapodistrias International Airport (LGKR)
Time Latitude Longitude Altitude Speed Heading
2026-04-30 14:53 53.86879 -1.65760 664 ft 0 kts
2026-04-30 15:05 53.86858 -1.65761 664 ft 4 kts
2026-04-30 15:06 53.86820 -1.65746 664 ft 4 kts 288°
2026-04-30 15:06 53.86817 -1.65666 663 ft 4 kts 271°
2026-04-30 15:07 53.86816 -1.65600 663 ft 0 kts 271°
2026-04-30 15:08 53.86816 -1.65607 663 ft 2 kts 271°
2026-04-30 15:09 53.86813 -1.65768 664 ft 9 kts 261°
2026-04-30 15:09 53.86815 -1.66000 665 ft 9 kts 272°
2026-04-30 15:10 53.86747 -1.66119 665 ft 8 kts 262°
2026-04-30 15:11 53.86915 -1.66556 670 ft 14 kts 317°
2026-04-30 15:11 53.87055 -1.66771 676 ft 13 kts 318°
2026-04-30 15:12 53.87266 -1.66997 684 ft 12 kts
2026-04-30 15:13 53.87402 -1.67075 683 ft 9 kts 271°
2026-04-30 15:14 53.87386 -1.67137 684 ft 7 kts 232°
2026-04-30 15:14 53.87310 -1.67165 688 ft 0 kts 137°
2026-04-30 15:16 53.85354 -1.64142 1535 ft 174 kts 134°
2026-04-30 15:17 53.80427 -1.60740 3317 ft 248 kts 204°
2026-04-30 15:18 53.78031 -1.74546 6800 ft 282 kts 256°
2026-04-30 15:19 53.77055 -1.84408 7249 ft 283 kts 255°
2026-04-30 17:39 43.43524 16.48940 37206 ft 486 kts 134°
2026-04-30 17:42 43.21294 16.81782 37196 ft 487 kts 134°
2026-04-30 17:43 43.09697 16.98765 37180 ft 489 kts 135°
2026-04-30 17:44 42.95704 17.19127 37186 ft 492 kts 135°
2026-04-30 17:47 42.74503 17.49701 37170 ft 494 kts 135°
2026-04-30 17:48 42.57983 17.73301 37150 ft 492 kts 136°
2026-04-30 17:50 42.39167 17.99945 37130 ft 490 kts 136°
2026-04-30 17:52 42.24990 18.19858 37138 ft 489 kts 136°
2026-04-30 17:54 42.03765 18.49429 37116 ft 470 kts 137°
2026-04-30 17:56 41.83709 18.71052 37138 ft 469 kts 147°
2026-04-30 17:58 41.68161 18.87102 37137 ft 472 kts 147°
2026-04-30 17:59 41.57553 18.97983 37141 ft 489 kts 147°
2026-04-30 18:00 41.46620 19.09037 36995 ft 490 kts 153°
2026-04-30 18:00 41.37511 19.14190 35779 ft 465 kts 168°
2026-04-30 18:01 41.31486 19.17036 35024 ft 459 kts 168°
2026-04-30 18:02 41.22543 19.21351 33817 ft 453 kts 168°
2026-04-30 18:02 41.13750 19.25626 32615 ft 443 kts 168°
2026-04-30 18:03 41.05140 19.29800 31508 ft 434 kts 169°
2026-04-30 18:04 40.96706 19.33874 30439 ft 426 kts 169°
2026-04-30 18:05 40.85776 19.39137 28906 ft 412 kts 169°
2026-04-30 18:06 40.75175 19.44222 27456 ft 399 kts 169°
2026-04-30 18:07 40.64902 19.49134 26071 ft 387 kts 168°
2026-04-30 18:08 40.57374 19.52724 25052 ft 380 kts 168°
2026-04-30 18:09 40.47648 19.57342 23916 ft 366 kts 168°
2026-04-30 18:10 40.38143 19.61833 22489 ft 362 kts 168°
2026-04-30 18:11 40.28755 19.66259 21150 ft 354 kts 168°
2026-04-30 18:11 40.21899 19.69485 20169 ft 348 kts 167°
2026-04-30 18:12 40.15125 19.72664 19227 ft 342 kts 167°
2026-04-30 18:13 40.10658 19.74757 18588 ft 340 kts 167°
2026-04-30 18:13 40.04729 19.77530 17650 ft 338 kts 166°
2026-04-30 18:14 39.99620 19.79916 16911 ft 333 kts 166°
2026-04-30 18:15 39.93138 19.82941 15976 ft 327 kts 165°
2026-04-30 18:15 39.86625 19.84929 15013 ft 318 kts 179°
2026-04-30 18:16 39.82240 19.85505 14385 ft 315 kts 179°
2026-04-30 18:16 39.77880 19.86001 13776 ft 313 kts 179°
2026-04-30 18:17 39.75714 19.86227 13433 ft 312 kts 179°
2026-04-30 18:17 39.73562 19.86444 13126 ft 309 kts 179°
2026-04-30 18:17 39.69289 19.86855 12532 ft 306 kts 179°
2026-04-30 18:18 39.67193 19.87047 12232 ft 304 kts 179°
2026-04-30 18:18 39.65098 19.87024 11925 ft 299 kts 192°
2026-04-30 18:18 39.63042 19.86559 11495 ft 302 kts 195°
2026-04-30 18:18 39.60974 19.86007 11070 ft 304 kts 195°
2026-04-30 18:19 39.58894 19.85438 10673 ft 307 kts 195°
2026-04-30 18:19 39.56806 19.84860 10258 ft 306 kts 195°
2026-04-30 18:19 39.54736 19.84278 9847 ft 303 kts 195°
2026-04-30 18:19 39.52683 19.83692 9398 ft 301 kts 195°
2026-04-30 18:20 39.50643 19.83103 8948 ft 299 kts 195°
2026-04-30 18:20 39.48618 19.82512 8506 ft 297 kts 195°
2026-04-30 18:20 39.46611 19.81920 8074 ft 295 kts 195°
2026-04-30 18:20 39.44617 19.81328 7652 ft 293 kts 195°
2026-04-30 18:21 39.42611 19.80874 7216 ft 294 kts 183°
2026-04-30 18:21 39.40570 19.80975 6814 ft 293 kts 178°
2026-04-30 18:21 39.38543 19.81204 6379 ft 291 kts 177°
2026-04-30 18:21 39.36534 19.81484 5931 ft 290 kts 172°
2026-04-30 18:22 39.34666 19.82448 5438 ft 292 kts 144°
2026-04-30 18:22 39.32784 19.86769 4582 ft 280 kts 91°
2026-04-30 18:22 39.32749 19.89261 4185 ft 275 kts 86°
2026-04-30 18:23 39.32777 19.91711 3787 ft 271 kts 86°
2026-04-30 18:23 39.32814 19.94107 3554 ft 261 kts 86°
2026-04-30 18:23 39.32856 19.96418 3339 ft 252 kts 85°
2026-04-30 18:23 39.32955 19.98633 3109 ft 241 kts 73°
2026-04-30 18:24 39.35087 20.01465 3003 ft 224 kts
2026-04-30 18:24 39.36584 20.01318 3001 ft 214 kts 338°
2026-04-30 18:24 39.37964 20.00608 3006 ft 213 kts 336°
2026-04-30 18:25 39.39294 19.99872 3000 ft 205 kts 336°
2026-04-30 18:25 39.41790 19.98461 3013 ft 192 kts 335°
2026-04-30 18:25 39.43017 19.97767 3021 ft 193 kts 336°
2026-04-30 18:26 39.45482 19.96645 2787 ft 180 kts 342°
2026-04-30 18:26 39.46641 19.96198 2584 ft 169 kts 342°
2026-04-30 18:26 39.47716 19.95767 2415 ft 151 kts 339°
2026-04-30 18:27 39.49606 19.94835 2011 ft 144 kts 337°
2026-04-30 18:27 39.50534 19.94362 1797 ft 143 kts 336°
2026-04-30 18:28 39.52376 19.93417 1473 ft 141 kts 338°
2026-04-30 18:28 39.53322 19.93024 1257 ft 145 kts 342°
2026-04-30 18:28 39.55284 19.92502 811 ft 142 kts 347°
2026-04-30 18:29 39.56244 19.92247 656 ft 143 kts 345°
2026-04-30 18:29 39.59269 19.91452 55 ft 152 kts 348°
2026-04-30 18:30 39.60678 19.91089 19 ft 67 kts 349°
2026-04-30 18:30 39.61007 19.91014 20 ft 12 kts 16°
2026-04-30 18:31 39.61056 19.91085 21 ft 10 kts 62°
2026-04-30 18:31 39.60974 19.91145 22 ft 10 kts 168°
2026-04-30 18:32 39.60842 19.91181 21 ft 9 kts 168°
2026-04-30 18:32 39.60779 19.91197 19 ft 9 kts 168°
2026-04-30 18:32 39.60658 19.91233 19 ft 9 kts 147°
2026-04-30 18:33 39.60660 19.91307 21 ft 7 kts 79°
2026-04-30 18:33 39.60667 19.91359 20 ft 0 kts 79°